Find Kosmos-591

NORAD ID: 6848 Int'l Des: 1973-069 Owner: GUKOSR Country: SU operational
LEOCIRCULAR

实时位置

正在加载3D地球...

关于 Kosmos-591

正在加载描述...

即将过境

Passes for default location (London). Set your location on the main map for personalized predictions.

高度历史

Loading altitude history...

两行轨道根数

1 6848U 73069D 26129.50073155 -.00000010 00000-0 34336-4 0 9992
2 6848 73.9977 131.5112 0089448 179.7775 299.1741 12.61752227422624
Epoch: May 9, 2026 • Age: 8 hours

当前状态

高度 1366.0 km
速度 7.20 km/s
星下点 37.86°N, 134.44°E
类型 other

Most Searched